sat.trackr.live / text

‹ back to catalog

ONEWEB-0303

NORAD 49187 · 2021-083B

PAYLOAD ACTIVE UNKNOWN

§ Identity

Operator
Country
UK
Launch date
2021-09-14
Launch site
TYMSC
Launch vehicle
Mass (kg)
RCS (m²)

Purposes: comms

External: N2YO · Heavens-Above · Gunter

§ Orbital elements

Epoch: 2026-09-20T03:35:12.401376Z

Period
109.20 min
Inclination
87.9162°
Eccentricity
0.0002044
Mean motion
13.18684899 rev/d
Perigee alt
1,188.2 km
Apogee alt
1,191.3 km
Semi-major
7,567.9 km
B*
3.9234e-5
RAAN
316.5889°
Arg perigee
101.9247°
Mean anomaly
258.2115°
Rev number
24,249

§ Raw data

ONEWEB-03031 49187U 21083B   26263.14944909  .00000028  00000+0  39234-4 0  99962 49187  87.9162 316.5889 0002044 101.9247 258.2115 13.18684899242490

JSON: /api/v1/satellites/49187 · /tle

For live sub-satellite position, see the globe view (requires WebGL).

§ Visibility from observer

Set your observer location to see the next 7 days of passes ≥ 10°. The values pass through the URL so the page stays shareable.

No JS? Fill the form by hand. The geolocation button needs JavaScript.